timestamp,wind_dir_avg,wind_spd_max_dir,wind_spd_avg,wind_spd_gust,battery_voltage,lat,long
2019-01-23 00:00:00+00:00,269.0,270.0,6.94,8.18,,47.59359,-54.27349
2019-01-23 00:10:00+00:00,265.0,273.0,6.25,7.27,,47.59359,-54.27349
2019-01-23 00:20:00+00:00,277.0,277.0,7.4,8.22,,47.59359,-54.27349
2019-01-23 00:30:00+00:00,278.0,277.0,6.39,7.18,,47.59359,-54.27349
2019-01-23 00:40:00+00:00,279.0,285.0,5.43,6.05,,47.59359,-54.27349
2019-01-23 00:50:00+00:00,272.0,270.0,5.04,5.56,,47.59359,-54.27349
2019-01-23 01:00:00+00:00,250.0,255.0,5.9,6.57,,47.59359,-54.27349
2019-01-23 01:10:00+00:00,259.0,257.0,4.36,5.09,,47.59359,-54.27349
2019-01-23 01:20:00+00:00,260.0,269.0,3.81,4.46,,47.59359,-54.27349
2019-01-23 01:30:00+00:00,266.0,268.0,5.03,5.67,,47.59359,-54.27349
2019-01-23 01:40:00+00:00,271.0,274.0,3.9,4.72,,47.59359,-54.27349
2019-01-23 01:50:00+00:00,264.0,263.0,5.08,6.05,,47.59359,-54.27349
2019-01-23 02:00:00+00:00,263.0,264.0,3.72,4.27,,47.59359,-54.27349
2019-01-23 02:10:00+00:00,266.0,266.0,4.77,5.37,,47.59359,-54.27349
2019-01-23 02:20:00+00:00,270.0,275.0,4.72,5.74,,47.59359,-54.27349
2019-01-23 02:30:00+00:00,276.0,276.0,5.17,5.98,,47.59359,-54.27349
2019-01-23 02:40:00+00:00,273.0,277.0,4.95,5.68,,47.59359,-54.27349
2019-01-23 02:50:00+00:00,276.0,281.0,5.45,6.17,,47.59359,-54.27349
2019-01-23 03:00:00+00:00,284.0,287.0,6.14,6.88,,47.59359,-54.27349
2019-01-23 03:10:00+00:00,276.0,282.0,4.76,5.44,,47.59359,-54.27349
2019-01-23 03:20:00+00:00,288.0,286.0,3.56,4.34,,47.59359,-54.27349
2019-01-23 03:30:00+00:00,300.0,303.0,4.61,5.93,,47.59359,-54.27349
2019-01-23 03:40:00+00:00,297.0,296.0,5.92,6.71,,47.59359,-54.27349
2019-01-23 03:50:00+00:00,297.0,302.0,5.1,6.66,,47.59359,-54.27349
2019-01-23 04:00:00+00:00,303.0,299.0,4.06,4.61,,47.59359,-54.27349
2019-01-23 04:10:00+00:00,295.0,286.0,3.96,5.33,,47.59359,-54.27349
2019-01-23 04:20:00+00:00,321.0,310.0,8.43,12.31,,47.59359,-54.27349
2019-01-23 04:30:00+00:00,322.0,329.0,6.56,7.82,,47.59359,-54.27349
2019-01-23 04:40:00+00:00,322.0,326.0,6.04,7.04,,47.59359,-54.27349
2019-01-23 04:50:00+00:00,314.0,312.0,6.21,7.79,,47.59359,-54.27349
2019-01-23 05:00:00+00:00,318.0,326.0,5.47,6.73,,47.59359,-54.27349
2019-01-23 05:10:00+00:00,326.0,329.0,3.25,4.68,,47.59359,-54.27349
2019-01-23 05:20:00+00:00,309.0,308.0,3.83,5.21,,47.59359,-54.27349
2019-01-23 05:30:00+00:00,330.0,340.0,4.99,6.56,,47.59359,-54.27349
2019-01-23 05:40:00+00:00,321.0,325.0,5.57,6.92,,47.59359,-54.27349
2019-01-23 05:50:00+00:00,302.0,302.0,4.95,6.48,,47.59359,-54.27349
2019-01-23 06:00:00+00:00,309.0,307.0,5.87,6.99,,47.59359,-54.27349
2019-01-23 06:10:00+00:00,309.0,304.0,5.08,7.52,,47.59359,-54.27349
2019-01-23 06:20:00+00:00,280.0,277.0,3.76,4.32,,47.59359,-54.27349
2019-01-23 06:30:00+00:00,304.0,301.0,5.85,6.98,,47.59359,-54.27349
2019-01-23 06:40:00+00:00,335.0,328.0,5.49,6.59,,47.59359,-54.27349
2019-01-23 06:50:00+00:00,320.0,322.0,5.62,6.82,,47.59359,-54.27349
2019-01-23 07:00:00+00:00,316.0,314.0,5.51,6.78,,47.59359,-54.27349
2019-01-23 07:10:00+00:00,317.0,315.0,5.9,6.56,,47.59359,-54.27349
2019-01-23 07:20:00+00:00,300.0,304.0,6.07,6.95,,47.59359,-54.27349
2019-01-23 07:30:00+00:00,301.0,299.0,5.62,6.53,,47.59359,-54.27349
2019-01-23 07:40:00+00:00,303.0,295.0,5.1,5.93,,47.59359,-54.27349
2019-01-23 07:50:00+00:00,302.0,303.0,5.86,6.8,,47.59359,-54.27349
2019-01-23 08:00:00+00:00,305.0,306.0,6.36,7.78,,47.59359,-54.27349
2019-01-23 08:10:00+00:00,299.0,297.0,6.07,6.66,,47.59359,-54.27349
2019-01-23 08:20:00+00:00,306.0,307.0,5.61,6.81,,47.59359,-54.27349
2019-01-23 08:30:00+00:00,312.0,310.0,6.62,8.24,,47.59359,-54.27349
2019-01-23 08:40:00+00:00,309.0,308.0,5.48,6.83,,47.59359,-54.27349
2019-01-23 08:50:00+00:00,316.0,312.0,5.09,5.96,,47.59359,-54.27349
2019-01-23 09:00:00+00:00,324.0,326.0,5.13,5.71,,47.59359,-54.27349
2019-01-23 09:10:00+00:00,338.0,336.0,4.68,5.58,,47.59359,-54.27349
2019-01-23 09:20:00+00:00,334.0,330.0,4.91,6.03,,47.59359,-54.27349
2019-01-23 09:30:00+00:00,342.0,345.0,5.27,6.33,,47.59359,-54.27349
2019-01-23 09:40:00+00:00,342.0,343.0,5.36,6.3,,47.59359,-54.27349
2019-01-23 09:50:00+00:00,345.0,341.0,6.16,7.25,,47.59359,-54.27349
2019-01-23 10:00:00+00:00,344.0,336.0,5.67,6.86,,47.59359,-54.27349
2019-01-23 10:10:00+00:00,338.0,338.0,5.33,6.42,,47.59359,-54.27349
2019-01-23 10:20:00+00:00,320.0,321.0,4.9,6.29,,47.59359,-54.27349
2019-01-23 10:30:00+00:00,343.0,345.0,5.62,7.56,,47.59359,-54.27349
2019-01-23 10:40:00+00:00,349.0,343.0,4.87,6.18,,47.59359,-54.27349
2019-01-23 10:50:00+00:00,340.0,344.0,6.67,8.03,,47.59359,-54.27349
2019-01-23 11:00:00+00:00,337.0,336.0,6.58,7.87,,47.59359,-54.27349
2019-01-23 11:10:00+00:00,327.0,332.0,8.53,9.85,,47.59359,-54.27349
2019-01-23 11:20:00+00:00,322.0,319.0,6.18,7.2,,47.59359,-54.27349
2019-01-23 11:30:00+00:00,323.0,332.0,6.67,7.52,,47.59359,-54.27349
2019-01-23 11:40:00+00:00,342.0,338.0,7.13,8.05,,47.59359,-54.27349
2019-01-23 11:50:00+00:00,340.0,336.0,8.8,9.94,,47.59359,-54.27349
2019-01-23 12:00:00+00:00,339.0,347.0,9.29,11.43,,47.59359,-54.27349
2019-01-23 12:10:00+00:00,343.0,341.0,10.72,11.78,,47.59359,-54.27349
2019-01-23 12:20:00+00:00,343.0,342.0,8.67,9.92,,47.59359,-54.27349
2019-01-23 12:30:00+00:00,341.0,345.0,8.69,9.79,,47.59359,-54.27349
2019-01-23 12:40:00+00:00,340.0,334.0,8.05,9.11,,47.59359,-54.27349
2019-01-23 12:50:00+00:00,348.0,350.0,8.75,9.79,,47.59359,-54.27349
2019-01-23 13:00:00+00:00,348.0,351.0,8.99,10.91,,47.59359,-54.27349
2019-01-23 13:10:00+00:00,354.0,352.0,8.19,8.86,,47.59359,-54.27349
2019-01-23 13:20:00+00:00,350.0,356.0,7.75,8.96,,47.59359,-54.27349
2019-01-23 13:30:00+00:00,349.0,344.0,6.79,7.94,,47.59359,-54.27349
2019-01-23 13:40:00+00:00,347.0,342.0,6.72,7.92,,47.59359,-54.27349
2019-01-23 13:50:00+00:00,354.0,357.0,6.7,7.86,,47.59359,-54.27349
2019-01-23 14:00:00+00:00,350.0,351.0,6.18,6.94,,47.59359,-54.27349
2019-01-23 14:10:00+00:00,348.0,345.0,5.69,7.32,,47.59359,-54.27349
2019-01-23 14:20:00+00:00,2.0,5.0,8.5,10.98,,47.59359,-54.27349
2019-01-23 14:30:00+00:00,359.0,4.0,7.19,8.4,,47.59359,-54.27349
2019-01-23 14:40:00+00:00,5.0,5.0,8.37,9.99,,47.59359,-54.27349
2019-01-23 14:50:00+00:00,9.0,10.0,7.8,9.22,,47.59359,-54.27349
2019-01-23 15:00:00+00:00,359.0,352.0,8.11,9.24,,47.59359,-54.27349
2019-01-23 15:10:00+00:00,0.0,358.0,9.28,10.67,,47.59359,-54.27349
2019-01-23 15:20:00+00:00,9.0,11.0,9.69,10.7,,47.59359,-54.27349
2019-01-23 15:30:00+00:00,23.0,31.0,9.62,11.34,,47.59359,-54.27349
2019-01-23 15:40:00+00:00,12.0,13.0,9.4,10.99,,47.59359,-54.27349
2019-01-23 15:50:00+00:00,7.0,7.0,9.93,10.93,,47.59359,-54.27349
2019-01-23 16:00:00+00:00,6.0,13.0,9.69,10.94,,47.59359,-54.27349
2019-01-23 16:10:00+00:00,3.0,5.0,10.05,11.23,,47.59359,-54.27349
2019-01-23 16:20:00+00:00,17.0,29.0,7.69,9.23,,47.59359,-54.27349
2019-01-23 16:30:00+00:00,9.0,22.0,8.76,10.01,,47.59359,-54.27349
2019-01-23 16:40:00+00:00,0.0,358.0,8.22,9.25,,47.59359,-54.27349
2019-01-23 16:50:00+00:00,6.0,2.0,9.35,10.17,,47.59359,-54.27349
2019-01-23 17:00:00+00:00,359.0,0.0,9.77,11.63,,47.59359,-54.27349
2019-01-23 17:10:00+00:00,2.0,4.0,8.22,9.49,,47.59359,-54.27349
2019-01-23 17:20:00+00:00,348.0,352.0,7.41,8.43,,47.59359,-54.27349
2019-01-23 17:30:00+00:00,350.0,347.0,8.94,11.54,,47.59359,-54.27349
2019-01-23 17:40:00+00:00,358.0,354.0,7.83,8.76,,47.59359,-54.27349
2019-01-23 17:50:00+00:00,353.0,357.0,8.15,8.93,,47.59359,-54.27349
2019-01-23 18:00:00+00:00,343.0,339.0,8.0,9.27,,47.59359,-54.27349
2019-01-23 18:10:00+00:00,349.0,347.0,8.41,9.45,,47.59359,-54.27349
2019-01-23 18:20:00+00:00,346.0,342.0,8.03,8.7,,47.59359,-54.27349
2019-01-23 18:30:00+00:00,336.0,337.0,7.26,8.11,,47.59359,-54.27349
2019-01-23 18:40:00+00:00,338.0,337.0,8.03,8.76,,47.59359,-54.27349
2019-01-23 18:50:00+00:00,318.0,321.0,7.19,8.16,,47.59359,-54.27349
2019-01-23 19:00:00+00:00,328.0,328.0,8.43,9.09,,47.59359,-54.27349
2019-01-23 19:10:00+00:00,324.0,325.0,6.98,7.89,,47.59359,-54.27349
2019-01-23 19:20:00+00:00,328.0,325.0,5.69,7.12,,47.59359,-54.27349
2019-01-23 19:30:00+00:00,325.0,326.0,8.06,9.6,,47.59359,-54.27349
2019-01-23 19:40:00+00:00,324.0,326.0,8.52,9.26,,47.59359,-54.27349
2019-01-23 19:50:00+00:00,325.0,333.0,8.37,10.07,,47.59359,-54.27349
2019-01-23 20:00:00+00:00,317.0,311.0,8.8,10.44,,47.59359,-54.27349
2019-01-23 20:10:00+00:00,324.0,320.0,7.01,8.08,,47.59359,-54.27349
2019-01-23 20:20:00+00:00,320.0,313.0,7.14,8.01,,47.59359,-54.27349
2019-01-23 20:30:00+00:00,329.0,333.0,5.8,7.26,,47.59359,-54.27349
2019-01-23 20:40:00+00:00,326.0,327.0,5.79,6.69,,47.59359,-54.27349
2019-01-23 20:50:00+00:00,326.0,320.0,5.51,6.31,,47.59359,-54.27349
2019-01-23 21:00:00+00:00,324.0,322.0,3.68,4.68,,47.59359,-54.27349
2019-01-23 21:10:00+00:00,332.0,325.0,3.07,3.53,,47.59359,-54.27349
2019-01-23 21:20:00+00:00,331.0,329.0,3.34,3.82,,47.59359,-54.27349
2019-01-23 21:30:00+00:00,312.0,314.0,4.17,4.85,,47.59359,-54.27349
2019-01-23 21:40:00+00:00,306.0,303.0,4.03,4.54,,47.59359,-54.27349
2019-01-23 21:50:00+00:00,300.0,295.0,4.77,6.13,,47.59359,-54.27349
2019-01-23 22:00:00+00:00,301.0,301.0,4.78,5.32,,47.59359,-54.27349
2019-01-23 22:10:00+00:00,285.0,282.0,3.55,4.19,,47.59359,-54.27349
2019-01-23 22:20:00+00:00,290.0,283.0,3.64,4.24,,47.59359,-54.27349
2019-01-23 22:30:00+00:00,289.0,291.0,4.31,5.07,,47.59359,-54.27349
2019-01-23 22:40:00+00:00,274.0,275.0,4.01,4.51,,47.59359,-54.27349
2019-01-23 22:50:00+00:00,272.0,274.0,4.84,5.65,,47.59359,-54.27349
2019-01-23 23:00:00+00:00,288.0,287.0,4.07,4.78,,47.59359,-54.27349
2019-01-23 23:10:00+00:00,278.0,279.0,4.63,5.59,,47.59359,-54.27349
2019-01-23 23:20:00+00:00,284.0,286.0,5.07,6.01,,47.59359,-54.27349
2019-01-23 23:30:00+00:00,285.0,290.0,4.65,5.68,,47.59359,-54.27349
2019-01-23 23:40:00+00:00,296.0,293.0,4.74,5.75,,47.59359,-54.27349
2019-01-23 23:50:00+00:00,308.0,311.0,3.91,4.23,,47.59359,-54.27349
